Location: Zagreb
(45.8000°N, 16.0000°E)
Time: 13:50:11
(UTC+02:00)

Transit 2A Rocket - Pass Details

Date: 18 August 2022
Orbit: 593 x 907 km, 66.7° (Epoch: 25 September)

Event Time Altitude Azimuth Distance (km) Brightness Sun altitude
Rises 19:51:12 0° 270° (W) 2,905 9.7 0.5°
Reaches altitude 10° 19:54:49 10° 300° (WNW) 1,961 9.1 -0.1°
Maximum altitude 19:56:43 13° 326° (NW) 1,785 7.9 -0.4°
Drops below altitude 10° 19:58:36 10° 352° (N) 1,940 7.5 -0.7°
Sets 20:02:08 0° 23° (NNE) 2,841 7.9 -1.3°
